Other Surface Observations
Issued by NWS Charleston, SC

Home | Current Version | Previous Version | Text Only | Print | Product List | Glossary On
Versions: 1 2 3 4 5 6 7 8 9 10 11 12 13 14 15 16 17 18 19 20 21 22 23 24 25 26 27 28 29 30 31 32 33 34 35 36 37 38 39 40 41 42 43 44 45 46 47 48 49 50
847
SXUS52 KCHS 260628
OSOCHS

MARINE OBSERVATIONS
NATIONAL WEATHER SERVICE CHARLESTON SC
200 AM EDT FRI AUG 26 2016

...DOWNTOWN CHARLESTON AND HARBOR...

CITY           SKY/WX    TMP DP  RH WIND       PRES   REMARKS
WATERFRONT PRK   N/A     82  73  74 VRB3      30.08R

...LAKE MOULTRIE...

CITY           SKY/WX    TMP DP  RH WIND       PRES   REMARKS
PINOPOLIS        N/A     77  73  88 CALM      30.03S

...LAKE AND SUPPLEMENTAL COASTAL OBSERVATIONS...

STATION/POSITION TIME  TEMP    WIND        PRES    WAVE   SWELL
                       AIR SEA DIR/SP/G            HT/PER HT/PER/DIR
                 (UTC) (F)     (DEG/KT/KT) (MB)    (FT/S) (FT/S/D)
FORT PULASKI     0600   80 86  120/  3/  4 1019.3F
SAPELO ISLAND    0600   78        CALM     1019.0S
WINYAH BAY       0545   74     310/  2     1018.0S
LAKE MURRAY      0600   82     200/  9/ 12 1018.3F
ACE BASIN NERRS  0500   74        CALM     1019.0S


...C-MAN AND BUOY OBSERVATIONS...

STATION/POSITION TIME  TEMP    WIND        PRES    WAVE   SWELL
                       AIR SEA DIR/SP/G            HT/PER HT/PER/DIR
                 (UTC) (F)     (DEG/KT/KT) (MB)    (FT/S) (FT/S/D)
BUOY 41004       0550   83 84  100/  6/  8 1018.2R   3/ 9   3/110/ 9
BUOY 41008       0550   83 85   70/ 10/ 10 1018.2S   4/ 7   3/120/ 7
FOLLY BEACH CMAN 0600   82     100/  5/  7 1019.0F
CAPERS NS BUOY   0608   82 84  100/  4/  6 1018.5F
FRIPP NS BUOY    0608   83 86  120/  6/  8 1018.2F
5E ST. MARYS GA  0601      85                N/A     4/ 7


STATION/POSITION TIME  TEMP    WIND        PRES    WAVE   SWELL
                       AIR SEA DIR/SP/G            HT/PER HT/PER/DIR
                 (UTC) (F)     (DEG/KT/KT) (MB)    (FT/S) (FT/S/D)
FRYING PAN BUOY  0600   82 84  100/  6/  8 1018.5R
BUOY 41025       0550   80 84  140/  2/  4 1018.6F   3/ 9   3/ 80/ 9
CAPE LOOKOUT NC  0600   80     150/  8/  8 1018.6S
BUOY 41002       0550   81 84   40/ 10/ 14 1016.8F   4/ 8   3/110/ 8
BUOY 41010       NOT AVBL
ST AUGUSTINE FL  0600   82 83   70/ 14/ 15 1018.0F

$$




USA.gov is the U.S. government's official web portal to all federal, state and local government web resources and services.